Date String (YYYY-MM-DD hh:mm:ss) UTC,Instrument flags,Ambient pressure (hPa),Sample flow (lpm),Bypass flow (lpm),Sample temperature (°C),Ambient temperature (°C),ASC tube jacket temperature (°C),LED temperature (°C),Box temperature (°C),Sample RH (%),Mass concentration (μg/m³),Mass concentration (μg/m³)
DateTimeUTC,F1_M11,P_M11,Q1_M11,Q2_M11,T1_M11,T2_M11,T3_M11,T4_M11,T5_M11,U1_M11,X2_M11,X0_M11
2021-08-14 10:00:00,,0833.7,5.01,0.00,29.9,29.0,00.0,39.0,31.7,29.2,0012.12,0023.71
2021-08-14 10:01:00,,0833.7,5.00,0.00,30.0,29.1,00.0,39.0,31.8,29.1,0012.13,0022.95
2021-08-14 10:02:00,,0833.8,5.00,0.00,30.0,29.1,00.0,39.0,31.9,29.2,0012.10,0022.47
2021-08-14 10:03:00,,0833.8,5.00,0.00,30.0,29.1,00.0,39.0,31.8,29.2,0012.11,0022.36
2021-08-14 10:04:00,,0833.7,5.01,0.00,29.9,27.6,00.0,39.0,31.3,29.2,0012.06,0022.36
2021-08-14 10:05:00,,0833.8,5.00,0.00,29.8,26.3,00.0,39.0,31.0,29.4,0012.08,0022.73
2021-08-14 10:06:00,,0833.7,5.00,0.00,29.7,26.4,00.0,38.9,31.0,29.9,0012.09,0022.78
2021-08-14 10:07:00,,0833.7,4.99,0.00,29.6,26.7,00.0,38.9,31.1,29.9,0012.08,0023.40
2021-08-14 10:08:00,,0833.7,5.00,0.00,29.6,27.1,00.0,38.9,31.1,30.0,0012.05,0022.93
2021-08-14 10:09:00,,0833.8,5.00,0.00,29.6,27.5,00.0,38.8,31.2,30.5,0012.00,0021.98
2021-08-14 10:10:00,,0833.8,5.01,0.00,29.6,27.7,00.0,38.8,31.3,30.7,0011.98,0022.20
2021-08-14 10:11:00,,0833.8,4.99,0.00,29.6,28.0,00.0,38.8,31.3,30.7,0011.99,0023.75
2021-08-14 10:12:00,,0833.8,5.01,0.00,29.6,28.2,00.0,38.8,31.4,30.7,0012.00,0024.31
2021-08-14 10:13:00,,0833.8,5.00,0.00,29.7,28.3,00.0,38.8,31.4,30.8,0012.00,0024.92
2021-08-14 10:14:00,,0833.8,5.00,0.00,29.7,28.4,00.0,38.8,31.5,30.8,0012.07,0025.80
2021-08-14 10:15:00,,0833.8,5.01,0.00,29.7,28.5,00.0,38.8,31.5,30.8,0012.22,0025.53
2021-08-14 10:16:00,,0833.8,4.99,0.00,29.7,28.6,00.0,38.8,31.5,30.8,0012.30,0025.21
2021-08-14 10:17:00,,0833.9,5.00,0.00,29.8,28.7,00.0,38.8,31.6,30.7,0012.33,0024.64
2021-08-14 10:18:00,,0833.9,5.00,0.00,29.8,28.8,00.0,38.8,31.6,30.6,0012.43,0024.23
2021-08-14 10:19:00,,0833.9,5.01,0.00,29.8,28.9,00.0,38.9,31.7,30.6,0012.56,0024.71
2021-08-14 10:20:00,,0833.9,5.00,0.00,29.9,28.9,00.0,38.9,31.7,30.7,0012.69,0025.32
2021-08-14 10:21:00,,0833.9,5.01,0.00,29.9,28.9,00.0,38.9,31.7,30.7,0012.76,0025.86
2021-08-14 10:22:00,,0833.9,4.99,0.00,29.9,29.0,00.0,38.9,31.7,30.7,0012.83,0024.42
2021-08-14 10:23:00,,0833.9,5.01,0.00,29.9,29.0,00.0,38.9,31.7,30.3,0012.90,0023.94
2021-08-14 10:24:00,,0834.0,5.00,0.00,29.9,29.1,00.0,38.9,31.8,30.2,0012.96,0023.56
2021-08-14 10:25:00,,0834.0,4.99,0.00,30.0,29.1,00.0,39.0,31.9,30.2,0012.98,0022.79
2021-08-14 10:26:00,,0834.0,5.01,0.00,30.0,29.2,00.0,39.0,31.9,30.2,0013.01,0023.10
2021-08-14 10:27:00,,0834.0,5.00,0.00,30.0,29.2,00.0,39.0,31.9,30.2,0013.00,0023.72
2021-08-14 10:28:00,,0834.0,5.01,0.00,30.0,28.5,00.0,39.0,31.7,30.5,0013.06,0025.14
2021-08-14 10:29:00,,0833.9,4.99,0.00,29.9,26.5,00.0,39.0,31.1,31.0,0013.17,0026.28
2021-08-14 10:30:00,,0833.9,5.01,0.00,29.7,25.5,00.0,38.9,30.8,31.8,0013.22,0026.46
2021-08-14 10:31:00,,0833.9,4.99,0.00,29.6,25.5,00.0,38.9,30.8,32.0,0013.19,0026.35
2021-08-14 10:32:00,,0833.8,5.00,0.00,29.4,26.0,00.0,38.8,30.9,32.2,0013.24,0026.71
2021-08-14 10:33:00,,0833.9,5.02,0.00,29.4,26.5,00.0,38.8,30.9,32.5,0013.28,0028.01
2021-08-14 10:34:00,,0833.9,4.99,0.00,29.4,26.9,00.0,38.7,31.0,32.6,0013.32,0028.50
2021-08-14 10:35:00,,0833.9,5.01,0.00,29.4,27.3,00.0,38.7,31.1,32.5,0013.38,0029.31
2021-08-14 10:36:00,,0834.0,5.01,0.00,29.4,27.5,00.0,38.7,31.1,32.1,0013.40,0030.92
2021-08-14 10:37:00,,0833.9,4.99,0.00,29.4,27.8,00.0,38.6,31.2,32.2,0013.40,0030.95
2021-08-14 10:38:00,,0833.9,5.01,0.00,29.5,28.0,00.0,38.6,31.2,32.1,0013.46,0030.82
2021-08-14 10:39:00,,0833.9,4.99,0.00,29.5,28.1,00.0,38.6,31.3,32.2,0013.39,0029.93
2021-08-14 10:40:00,,0833.9,5.00,0.00,29.5,28.2,00.0,38.6,31.3,32.2,0013.27,0028.93
2021-08-14 10:41:00,,0833.9,5.01,0.00,29.5,28.3,00.0,38.6,31.3,32.2,0013.25,0028.82
2021-08-14 10:42:00,,0833.9,4.98,0.00,29.6,28.4,00.0,38.7,31.4,32.1,0013.31,0028.63
2021-08-14 10:43:00,,0833.9,5.01,0.00,29.6,28.5,00.0,38.7,31.4,31.9,0013.29,0027.46
2021-08-14 10:44:00,,0834.0,4.99,0.00,29.6,28.6,00.0,38.7,31.4,31.7,0013.20,0025.74
2021-08-14 10:45:00,,0834.0,5.00,0.00,29.7,28.7,00.0,38.7,31.5,31.3,0013.14,0025.81
2021-08-14 10:46:00,,0834.0,5.01,0.00,29.7,28.7,00.0,38.7,31.5,31.2,0013.09,0024.86
2021-08-14 10:47:00,,0834.0,4.99,0.00,29.7,28.8,00.0,38.7,31.6,31.2,0013.08,0023.88
2021-08-14 10:48:00,,0834.0,5.00,0.00,29.8,28.8,00.0,38.7,31.6,31.2,0013.11,0024.48
2021-08-14 10:49:00,,0834.0,4.99,0.00,29.8,28.9,00.0,38.8,31.6,30.9,0013.10,0025.45
2021-08-14 10:50:00,,0834.0,5.01,0.00,29.8,28.9,00.0,38.8,31.7,30.7,0013.19,0025.87
2021-08-14 10:51:00,,0834.0,4.99,0.00,29.8,29.0,00.0,38.8,31.7,30.6,0013.21,0026.43
2021-08-14 10:52:00,,0834.0,5.00,0.00,29.9,29.0,00.0,38.8,31.7,30.4,0013.17,0026.77
2021-08-14 10:53:00,,0834.0,5.00,0.00,29.9,29.0,00.0,38.9,31.7,30.8,0013.15,0027.19
2021-08-14 10:54:00,,0834.0,5.01,0.00,29.9,29.1,00.0,38.9,31.7,30.7,0013.10,0028.11
2021-08-14 10:55:00,,0834.0,5.00,0.00,29.9,29.1,00.0,38.9,31.7,30.3,0013.18,0028.74
2021-08-14 10:56:00,,0834.0,5.00,0.00,29.9,29.1,00.0,38.9,31.8,30.0,0013.15,0027.98
2021-08-14 10:57:00,,0834.0,4.99,0.00,30.0,29.2,00.0,39.0,31.8,29.9,0013.14,0027.64
2021-08-14 10:58:00,,0834.0,5.00,0.00,30.0,29.2,00.0,39.0,31.9,29.8,0013.12,0027.77
2021-08-14 10:59:00,,0834.0,5.00,0.00,30.0,29.2,00.0,39.0,31.9,29.8,0013.07,0028.53
